Voltar ao catálogo

SCOUT A DEB

AtivoPO
NORAD 5447·DEBRIS·🇺🇸 United States

Lançado Aug 27, 1970 de Vandenberg Space Force Base

Loading…

Próximas Passagens (próximas 24 horas)

TLE

AtualizadoSource: Space-Track

Época: Sep 14, 2026, 09:48 UTC

1 05447U 70067D   26257.40877181  .00000255  00000-0  44617-3 0  9995
2 05447  89.9724 242.6503 0304742 241.2296 277.3279 13.25138653700077

Acompanhe SCOUT A DEB em tempo real com AllMySat

Download on the App Store